Regional Weather Roundup
Issued by NWS

Home | Current Version | Previous Version | Graphics & Text | Print | Product List | Glossary On
Versions: 1 2 3 4 5 6 7 8 9 10 11 12 13 14 15 16 17 18 19 20 21 22 23 24 25 26 27 28 29 30 31 32 33 34 35 36 37 38 39 40 41 42 43 44 45 46 47 48 49 50
326
ASUS43 KLSX 230710
RWRMO

WEATHER SUMMARY FOR MISSOURI
NATIONAL WEATHER SERVICE SPRINGFIELD MO
200 AM CDT FRI JUN 23 2017

NOTE: "FAIR" INDICATES FEW OR NO CLOUDS BELOW 12,000 FEET WITH NO
       SIGNIFICANT WEATHER AND/OR OBSTRUCTIONS TO VISIBILITY.
       CURRENT SKY AND/OR WEATHER CONDITIONS ARE NOT AVAILABLE FOR
       CHILLICOTHE AND FARMINGTON.

MOZ001>031-035>038-043-044-053-054-230800-
...NORTHERN AND WESTERN MISSOURI...

CITY           SKY/WX    TMP DP  RH WIND       PRES   REMARKS
KANSAS CTY INT PTCLDY    74  72  93 S8        29.71F
KANSAS C DTWN  CLEAR     79  74  84 SW3       29.69F
LEE`S SUMMIT   CLEAR     76  73  91 S7        29.72S
ST JOSEPH      CLOUDY    77  74  90 W3        29.71S
CHILLICOTHE      N/A     75  73  93 SW3       29.70F
KIRKSVILLE     CLEAR     74  72  93 S7        29.69F

$$
MOZ066>068-077>081-088>096-101>105-230800-
...SOUTHWEST MISSOURI...

CITY           SKY/WX    TMP DP  RH WIND       PRES   REMARKS
SPRINGFIELD    PTCLDY    73  71  93 S6        29.75S
JOPLIN         PTCLDY    74  73  97 CALM      29.75R
BRANSON        CLOUDY    72  72 100 CALM      29.76S FOG

$$
MOZ032>034-039>042-045>050-055>058-069>072-230800-
...CENTRAL MISSOURI...

CITY           SKY/WX    TMP DP  RH WIND       PRES   REMARKS
COLUMBIA       PTCLDY    74  73  97 S6        29.73S
JEFFERSON CITY CLOUDY    77  72  84 SE5       29.73R
ROLLA          PTCLDY    71  70  96 S5        29.76R
SEDALIA        CLEAR     74  74 100 S7        29.74R
WHITEMAN AFB   PTCLDY    74  74 100 S6        29.70F
WARRENSBURG    PTCLDY    73  72  94 S6        29.71F
OSAGE BEACH    CLOUDY    74  72  93 CALM      29.76R

$$
MOZ051-052-059>065-230800-
...EAST CENTRAL MISSOURI...

CITY           SKY/WX    TMP DP  RH WIND       PRES   REMARKS
ST LOUIS INTL  PTCLDY    79  74  84 S7        29.74S
SPIRIT OF STL  PTCLDY    74  74 100 CALM      29.72S
ST CHARLES     MOCLDY    77  75  93 MISG      29.72R

$$
MOZ072>076-082>087-097>100-106>115-230800-
...SOUTH CENTRAL AND SOUTHEAST MISSOURI...

CITY           SKY/WX    TMP DP  RH WIND       PRES   REMARKS
CAPE GIRARDEAU LGT RAIN  76  74  93 S3        29.72F
FARMINGTON     CLOUDY    75  73  93 S6        29.75F
POPLAR BLUFF   CLOUDY    77  75  93 SE12      29.71F
WEST PLAINS    CLOUDY    75  72  90 CALM      29.75S

$$




USA.gov is the U.S. government's official web portal to all federal, state and local government web resources and services.